Simultaneous Nadir Overpasses (SNOs) Predictions

Prediction of SNOs between AQUA and NPP Satellite Orbit:

Table of predicted SNOs for the next 14.0 days since TLE Epoch: 10/20/2018
Index Date (AQUA) Time (AQUA) Lat,Lon (AQUA) SZA (AQUA ) Date (NPP) Time (NPP) Lat,Lon (NPP) SZA (NPP ) Distance(km) Time Diff (sec)
1 10/21/2018 05:32:38 74.92, -27.10 107.93 10/21/2018 05:31:40 74.92, -27.12 108.00 0.62 58
2 10/21/2018 06:21:40 -76.22, 144.24 73.43 10/21/2018 06:21:58 -76.22, 144.26 73.45 0.61 18
3 10/23/2018 21:48:59 75.24, 89.62 108.50 10/23/2018 21:48:27 75.24, 89.56 108.54 1.96 32
4 10/23/2018 22:38:03 -76.43, -99.18 72.76 10/23/2018 22:38:47 -76.43, -99.21 72.79 0.86 44
5 10/26/2018 14:05:20 75.60,-153.49 109.00 10/26/2018 14:05:14 75.60,-153.58 109.03 2.84 6
6 10/26/2018 14:54:25 -76.73, 17.73 72.21 10/26/2018 14:55:35 -76.72, 17.67 72.26 1.74 70
7 10/29/2018 05:32:40 -74.77, 152.51 69.30 10/29/2018 05:31:42 -74.77, 152.43 69.22 2.44 58
8 10/29/2018 06:21:32 76.39, -35.17 109.02 10/29/2018 06:21:51 76.40, -35.08 108.98 2.66 19
9 10/31/2018 21:48:59 -75.23, -90.42 68.92 10/31/2018 21:48:27 -75.22, -90.51 68.87 2.72 32




NCC Satellite Simultaneous Nadir Overpasses (SNOs) Prediction Service
